Pagina principale
METAR-TAF:

METAR-TAF

Aeroporti :

Le Luc, Francia

latitudine: 43-23N, longitudine: 006-23E, altezza: 80 m

Osservazione

Il bollettino è stato emesso 26 minuti fa, alle 15:00 UTC
Vento 16 kt da ovest/nord-ovest, variando fra ovest e nord-ovest
Temperature 14°C
Umidità 47%
Pressione 1010 hPa
Visibilità 10 km o più

METAR: LFMC 091500Z AUTO 29016KT 260V320 9999 ////// 14/03 Q1010

Ora: 16:26 (15:26 UTC)


TAF: mancante

Osservazioni e previsioni meteorologiche di più di 4000 aeroporti (messaggi METAR e TAF).

Le stazioni disponibili sono rappresentate dai dischi gialli e rossi sulla carta.

Puntare il mouse per vedere il nome della stazione.

Clicca sopra per visualizzare le osservazioni e previsioni meteorologiche.

Per cambiare la mappa : fare clic sui pulsanti verdi con una croce nera per ingrandire, il pulsante verde con un trattino per diminuire, o sulla freccia verde per le mappe adiacenti.


METAR-TAF: